TimeEST,TemperatureF,Dew PointF,Humidity,Sea Level PressureIn,VisibilityMPH,Wind Direction,Wind SpeedMPH,Gust SpeedMPH,PrecipitationIn,Events,Conditions,WindDirDegrees,DateUTC
12:52 AM,33.1,24.1,70,30.52,10.0,South,3.5,-,N/A,,Clear,170,2013-01-28 05:52:00
1:52 AM,33.1,24.1,70,30.51,10.0,Calm,Calm,-,N/A,,Clear,0,2013-01-28 06:52:00
2:52 AM,34.0,24.1,67,30.48,10.0,South,5.8,-,N/A,,Mostly Cloudy,190,2013-01-28 07:52:00
3:52 AM,34.0,25.0,70,30.46,10.0,SSE,4.6,-,N/A,,Overcast,160,2013-01-28 08:52:00
4:52 AM,35.1,24.1,64,30.45,10.0,South,5.8,-,N/A,,Overcast,170,2013-01-28 09:52:00
5:44 AM,35.6,24.8,65,30.43,6.0,South,3.5,-,0.00,,Ice Pellets,180,2013-01-28 10:44:00
5:52 AM,34.0,24.1,67,30.43,6.0,South,5.8,-,0.00,Rain,Light Ice Pellets,180,2013-01-28 10:52:00
6:26 AM,33.8,26.6,75,30.43,8.0,South,6.9,-,0.01,Rain,Light Rain,190,2013-01-28 11:26:00
6:52 AM,34.0,27.0,75,30.45,7.0,SSW,5.8,-,0.01,Rain,Light Rain,200,2013-01-28 11:52:00
7:52 AM,33.1,28.0,82,30.45,4.0,South,5.8,-,0.03,Rain,Light Rain,180,2013-01-28 12:52:00
8:52 AM,33.1,28.9,85,30.42,3.0,SSE,5.8,-,0.03,Rain,Light Rain,160,2013-01-28 13:52:00
9:52 AM,34.0,30.0,85,30.40,3.0,South,8.1,-,0.02,Rain,Light Rain,170,2013-01-28 14:52:00
10:23 AM,33.8,30.2,87,30.38,3.0,South,9.2,-,0.01,Rain,Light Rain,170,2013-01-28 15:23:00
10:52 AM,35.1,30.9,85,30.38,4.0,SSW,5.8,-,0.01,Rain,Light Rain,200,2013-01-28 15:52:00
11:52 AM,36.0,32.0,86,30.32,5.0,South,9.2,16.1,0.00,,Overcast,190,2013-01-28 16:52:00
12:39 PM,39.2,33.8,81,30.27,6.0,South,9.2,16.1,N/A,,Haze,190,2013-01-28 17:39:00
12:52 PM,39.9,34.0,79,30.25,7.0,SSW,8.1,16.1,N/A,,Scattered Clouds,200,2013-01-28 17:52:00
1:52 PM,43.0,33.1,68,30.19,8.0,South,12.7,18.4,N/A,,Mostly Cloudy,190,2013-01-28 18:52:00
2:52 PM,46.0,35.1,66,30.17,10.0,SW,6.9,-,N/A,,Scattered Clouds,220,2013-01-28 19:52:00
3:52 PM,46.9,35.1,63,30.15,10.0,SSW,8.1,-,N/A,,Mostly Cloudy,200,2013-01-28 20:52:00
4:52 PM,48.0,36.0,63,30.15,10.0,SW,9.2,-,N/A,,Mostly Cloudy,220,2013-01-28 21:52:00
5:52 PM,48.0,36.0,63,30.13,10.0,SSW,10.4,-,N/A,,Mostly Cloudy,210,2013-01-28 22:52:00
6:52 PM,48.0,37.0,66,30.12,10.0,SSW,10.4,-,0.00,Rain,Light Rain,210,2013-01-28 23:52:00
7:52 PM,48.9,39.0,69,30.11,10.0,SSW,10.4,-,0.00,,Mostly Cloudy,210,2013-01-29 00:52:00
8:52 PM,50.0,39.9,68,30.09,10.0,SSW,12.7,-,N/A,,Overcast,210,2013-01-29 01:52:00
9:52 PM,50.0,41.0,71,30.08,10.0,SW,15.0,-,N/A,,Scattered Clouds,220,2013-01-29 02:52:00
10:52 PM,50.0,41.0,71,30.08,10.0,SW,15.0,23.0,N/A,,Scattered Clouds,220,2013-01-29 03:52:00
11:52 PM,50.0,41.0,71,30.07,10.0,SW,17.3,26.5,N/A,,Clear,220,2013-01-29 04:52:00